www.pogodaiklimat.ru

Погода и климат >> Архив погоды >> Россия >> Ленинградская область >> Сланцы


ПОГОДА в Сланцах

  • Прогноз погоды в Сланцах
  • Монитор погоды в Сланцах

АРХИВ ПОГОДЫ в Сланцах

Время (UTC), дата Ветер
(напр.,м/с)
 
Видим.   Явления Облачность Т
(С)
Тd
(С)
f
(%)
Тe
(С)
Тes
(С)
Комфортность P
(гПа)
Po
(гПа)
Тmin
(С)
Tmax
(С)
R
(мм)
R24
(мм)
S
(см)
00 13.06 В 3 н/о н/о +11.6 +4.2 60 +10 +10 1023.8 1019.0
03 13.06 В 2 н/о н/о +11.6 +4.1 60 +11 +11 1023.4 1018.5 +11.3
06 13.06 ЮВ 3 н/о н/о +16.0 +7.5 57 +16 +16 1022.4 1017.6 +11.3
09 13.06 ЮВ 6-11
{11}
н/о н/о +13.1 +11.2 88 +11 +11 1021.3 1016.5
12 13.06 ЮВ 3
{14}
н/о н/о +19.0 +11.4 61 +20 +20 1020.6 1015.9
15 13.06 В 3 н/о н/о +20.9 +12.6 59 +24 +24 комфорт 1019.1 1014.4 5
18 13.06 Ю 1 н/о н/о +18.5 +12.7 69 +20 +20 1018.2 1013.4 +21.0 5
21 13.06 ЮВ 2 н/о н/о +16.9 +12.4 75 +17 +17 1016.8 1012.0
00 14.06 ЮЗ 1 н/о н/о +16.8 +16.0 95 +18 +18 1015.2 1010.4
03 14.06 СЗ 2 н/о н/о +16.8 +16.2 96 +17 +17 1014.7 1010.0 +16.3 0.8
06 14.06 З 1 н/о н/о +18.9 +17.1 89 +21 +21 комфорт 1014.8 1010.1 +16.3 0.8
09 14.06 З 1 н/о н/о +21.9 +17.0 74 +26 +26 душно 1015.1 1010.4
12 14.06 СЗ 2 н/о н/о +20.7 +17.5 82 +25 +25 комфорт 1015.9 1011.2
15 14.06 СЗ 3 н/о н/о +17.9 +15.4 85 +18 +18 1016.3 1011.5 0.3
18 14.06 СЗ 1 н/о н/о +15.0 +13.6 91 +15 +15 1016.6 1011.8 +22.9 0.3
21 14.06 штиль 0 н/о н/о +14.9 +14.1 95 +15 +15 1016.9 1012.1
00 15.06 ЮЗ 1 н/о н/о +15.2 +13.3 88 +16 +16 1016.1 1011.3
03 15.06 З 2 н/о н/о +14.0 +11.8 87 +13 +13 1016.4 1011.6 +13.9
06 15.06 З 2 н/о н/о +13.2 +11.3 88 +12 +12 1016.9 1012.1 +13.1
09 15.06 З 2 н/о н/о +17.6 +11.9 69 +18 +18 1016.5 1011.7
12 15.06 З 3 н/о н/о +22.4 +11.9 51 +25 +25 комфорт 1015.8 1011.2
15 15.06 СЗ 2 н/о н/о +21.3 +12.9 59 +24 +24 комфорт 1015.7 1011.0
18 15.06 С 1 н/о н/о +19.4 +11.7 61 +22 +22 комфорт 1015.8 1011.1 +23.0
21 15.06 штиль 0 н/о н/о +13.6 +11.7 88 +13 +13 1016.2 1011.4
00 16.06 З 2 н/о н/о +12.1 +10.7 91 +11 +11 1016.2 1011.4
03 16.06 штиль 0 н/о н/о +12.0 +10.7 92 +11 +11 1015.7 1010.9 +10.3
06 16.06 ЮЗ 2 н/о н/о +18.2 +13.2 73 +19 +19 1015.6 1010.9 +10.3
09 16.06 ЮЗ 2 н/о н/о +22.8 +11.5 49 +25 +25 комфорт 1015.2 1010.5
12 16.06 З 2 н/о н/о +23.4 +11.8 48 +26 +26 жарко 1014.4 1009.8
15 16.06 штиль 0 н/о н/о +24.0 +13.7 53 +26 +26 жарко 1013.9 1009.3
18 16.06 штиль 0 н/о н/о +21.7 +12.0 54 +24 +24 комфорт 1013.7 1009.0 +25.4
21 16.06 штиль 0 н/о н/о +15.4 +12.8 84 +15 +15 1013.5 1008.7
00 17.06 штиль 0 н/о н/о +13.1 +11.1 88 +13 +13 1013.3 1008.5
03 17.06 З 1 н/о н/о +15.9 +10.6 71 +17 +17 1013.3 1008.6 +12.4
06 17.06 З 1 н/о н/о +20.3 +11.8 58 +23 +23 комфорт 1013.1 1008.4 +12.4
09 17.06 З 1 н/о н/о +24.2 +11.4 45 +26 +26 жарко 1012.8 1008.2
12 17.06 ЮЗ 2 н/о н/о +26.3 +12.0 41 +28 +28 жарко 1012.6 1008.0
15 17.06 ЮЗ 2 н/о н/о +23.6 +12.2 49 +25 +25 комфорт 1012.4 1007.8
18 17.06 штиль 0 н/о н/о +22.5 +10.5 47 +24 +24 комфорт 1012.5 1007.9 +26.3
21 17.06 З 1 н/о н/о +15.2 +13.3 88 +16 +16 1013.4 1008.7
00 18.06 ЮЗ 2 н/о н/о +13.5 +6.4 62 +13 +13 1014.0 1009.2
03 18.06 ЮЗ 1 н/о н/о +13.2 +9.1 76 +13 +13 1014.2 1009.4 +12.7 0.3
06 18.06 З 2 н/о н/о +19.5 +11.1 58 +21 +21 комфорт 1014.5 1009.8 +12.7 0.3
09 18.06 ЮЗ 2 н/о н/о +23.5 +12.1 49 +25 +25 комфорт 1014.8 1010.2
12 18.06 З 3 н/о н/о +25.5 +9.0 35 +26 +26 жарко 1015.0 1010.4
15 18.06 В 1 н/о н/о +26.7 +10.6 36 +27 +27 жарко 1014.8 1010.2
18 18.06 СВ 1 н/о н/о +24.0 +12.0 47 +26 +26 жарко 1014.8 1010.2 +27.2
21 18.06 З 1 н/о н/о +15.3 +12.5 83 +16 +16 1015.9 1011.1
00 19.06 ЮЗ 1 н/о н/о +13.1 +10.3 83 +13 +13 1016.7 1011.9
03 19.06 ЮЗ 1 н/о н/о +13.5 +10.6 83 +14 +14 1016.9 1012.1 +11.7
06 19.06 ЮЗ 2 н/о н/о +19.2 +11.6 61 +21 +21 комфорт 1017.0 1012.3 +11.7
09 19.06 ЮЗ 1 н/о н/о +22.8 +11.5 49 +25 +25 комфорт 1016.6 1011.9
12 19.06 Ю 2 н/о н/о +25.3 +11.9 43 +27 +27 жарко 1016.2 1011.5
15 19.06 ЮЗ 2 н/о н/о +25.7 +12.3 43 +27 +27 жарко 1014.7 1010.1
18 19.06 штиль 0 н/о н/о +25.0 +13.9 50 +27 +27 жарко 1013.8 1009.2 +26.4

 

Местоположение метеостанции Сланцы (Ленинградская область, Россия): широта 59.12 долгота 28.08 высота над уровнем моря 50 м.

В архиве по умолчанию представлена погода в Сланцах за последнюю неделю. Архивные данные за месяц целиком и за предыдущие месяцы, начиная с января 2011 года, Вы можете получить, выбрав интересующий диапазон дат из раскрывающегося списка и нажав кнопку "Ввод!".


*Определитесь, кто Вы:
робот инопланетянин человек

Внимание! Время в таблицах - всемирное. Для получения местного времени необходимо прибавить поправку, которая равна 3 ч.

Смотрите также архив погоды в соседних городах и на ближайших метеорологических станциях:

Погода в Нарве (Эстония) (28 км)
Погода в Кингисеппе (Ленинградская область, Россия) (41 км)
Погода в Гдове (Псковская область, Россия) (46 км)
Погода в Йохви (Эстония) (46 км)
Погода в Тиирикое (Эстония) (70 км)
Погода в Волосово (Ленинградская область, Россия) (88 км)
Погода в Кунде (Эстония) (99 км)
Погода в Сосновом Бору (Ленинградская область, Россия) (99 км)
Погода в Йыгеве (Эстония) (104 км)
Погода в Вяйке-Маарье (Эстония) (106 км)

Пояснения к столбцам:

Ветер - указаны скорость ветра в м/с - средняя за 10 мин, порывы в срок и между сроками (в фигурных скобках) и направление, откуда дует ветер: С - северный, СВ - северо-восточный, В - восточный, ЮВ - юго-восточный, Ю - южный, ЮЗ - юго-западный, З - западный, СЗ - северо-западный.
Видимость - горизонтальная дальность видимости в метрах или километрах. При видимости от 1 до 10 км при отсутствии осадков обычно наблюдается дымка, при ухудшении видимости до 1 км и менее - туман. В сухую погоду видимость может ухудшаться дымом, пылью или мглою.
Явления - указаны атмосферные явления, наблюдавшиеся в срок или в последний час перед сроком; фигурными скобками обозначены явления, наблюдавшиеся между сроками (за 1-3 часа до срока); квадратными скобками обозначены град или гололедные отложения с указанием их диаметра в мм.
Облачность - указаны через наклонную черту общая и нижняя облачность в баллах и высота нижней границы облаков в метрах; квадратными скобками обозначены формы облаков: Ci - перистые, Cs - перисто-слоистые, Cc - перисто-кучевые, Ac - высококучевые, As - высокослоистые, Sc - слоисто-кучевые, Ns - слоисто-дождевые, Cu - кучевые, Cb - кучево-дождевые. Подробнее классификацию облаков см. в Атласе облаков (PDF).
T - Температура воздуха - температура, измеренная на высоте 2 м над землей.
Td - Температура точки росы - температура, при понижении до которой содержащийся в воздухе водяной пар достигнет насыщения.
f - Относительная влажность воздуха - влажноcть воздуха, измеренная на высоте 2 м над землей.
Te - Эффективная температура - температура, которую ощущает одетый по сезону человек в тени. Характеристика душности погоды. При расчете учитывается влияние влажности воздуха и скорости ветра на теплоощущения человека.
Tes - Эффективная температура на солнце - температура, которую ощущает человек, с поправкой на солнечный нагрев. Характеристика знойности погоды. Зависит от высоты солнца над горизонтом, облачности и скорости ветра. Ночью, в пасмурную погоду, а также при ветре 12 м/с и более поправка равна нулю.
P - Атмосферное давление - приведенное к уровню моря атмосферное давление.
Po - Атмосферное давление - измеренное на уровне метеостанции атмосферное давление.
Tmin - Минимальная температура - минимум температуры воздуха на высоте 2 м над землей.
Tmax - Максимальная температура - максимум температуры воздуха на высоте 2 м над землей.
R - Количество осадков - Количество выпавших осадков за период времени, мм. При наведении курсора мыши на число - период времени, за который выпало указанное количество осадков.
R24 - Количество осадков - Количество выпавших осадков за 24 часа, мм.
S - Снежный покров - Высота снежного покрова, см. При наведении курсора мыши на число - состояние снежного покрова и степень покрытия местности в баллах.